x

Nantucket Sound (44020) Wave Buoy

8:50 - Tue 27th Sep 2016 All times are EDT. -4 hours from GMT.

  • Sig Wave height 1.3ft
  • Swell Direction
  • Peak Period 4s
  • Average Period 4s
  • Wind
    4mph, 7mph gusts
  • Sea Temp 69°f
  • Aire Temp 67°f
  • Sea Pressure 1014.6mb
  • Nantucket Sound
  • Nantucket Sound

More Historic Weather Station data

Upgrade to MSW Pro to gain access to the past 30 days of data for over 8000 Wavebouys and Weather Stations around the globe.

Join Pro

Comparision Forecast

View Surf forecast
   
mar 09/27 8:50 1.3ft 4s 4s 4 7 mph 1014.6mb 69f 67f
7:50 1ft 4s 4s 7
mph
1013.9mb 68f 67f
6:50 1ft 5s 4s 7
mph
1013.3mb 68f 67f
5:50 1ft 7s 3s 7 9 mph 1013mb 68f 67f
4:50 1.3ft 7s 3s 7 9 mph 1012.6mb 68f 67f
3:50 1ft 3s 3s 9 11 mph 1012.6mb 67f 67f
2:50 1.3ft 3s 3s 11 13 mph 1012.3mb 67f 67f
1:50 1.3ft 3s 3s 13 16 mph 1012.4mb 67f 67f
12:50 1.6ft 4s 3s 13 16 mph 1012.1mb 68f 67f
11:50 2.5ft 3s 4s 16 18 mph 1012.2mb 68f 67f
10:50 2.5ft 4s 4s 18 22 mph 1012.4mb 68f 68f
9:50 2.5ft 4s 3s 25 29 mph 1012.3mb 68f 68f
8:50 2.5ft 4s 3s 22 27 mph 1012.6mb 68f 68f
7:50 2.5ft 4s 3s 20 25 mph 1012.8mb 68f 69f
6:50 1.6ft 3s 3s 25 29 mph 1012.8mb 68f 69f
5:50 1.6ft 3s 3s 22 25 mph 1013.4mb 67f 69f
4:50 1.6ft 3s 3s 20 25 mph 1014mb 67f 68f
3:50 1.6ft 3s 3s 18 22 mph 1014.9mb 66f 68f
2:50 1.6ft 3s 3s 20 22 mph 1015.3mb 66f 67f
1:50 1.6ft 3s 3s 20 22 mph 1016.1mb 66f 67f
12:50 1.6ft 3s 3s 20 25 mph 1016.8mb 66f 66f
lun 09/26 11:50 1.6ft 3s 3s 20 25 mph 1017.9mb 67f 66f
10:50 1.6ft 3s 3s 20 25 mph 1018.4mb 68f 65f
9:50 1.3ft 3s 3s 16 20 mph 1018.7mb 68f 64f
8:50 1.3ft 3s 3s 16 18 mph 1019.3mb 68f 63f
7:50 1.3ft 2s 3s 16 18 mph 1019.4mb 68f 63f
6:50 1ft 2s 3s 16 18 mph 1019.5mb 69f 62f
5:50 0.7ft  -  3s 13 16 mph 1020mb 68f 63f
4:50 0.7ft  -  4s 11 16 mph 1020.3mb 68f 62f
3:50 0.7ft  -  4s 9 11 mph 1020.8mb 68f 61f
2:50 0.7ft  -  4s 4 7 mph 1021.3mb 67f 61f
1:50 0.7ft  -  4s  -  2 mph 1021.5mb 67f 62f
12:50 0.7ft  -  4s 4 7 mph 1022.2mb 66f 60f
11:50 1ft 5s 4s 7 9 mph 1022.4mb 67f 60f
10:50 1ft 5s 4s 2 4 mph 1022.7mb 68f 60f
9:50 1ft 3s 3s 7 11 mph 1022.8mb 68f 59f
8:50 1.3ft 5s 3s 7 11 mph 1023.1mb 68f 59f
7:50 1.3ft 3s 3s 9 13 mph 1022.7mb 68f 59f
6:50 1ft 3s 3s 9 13 mph 1022.1mb 68f 59f
5:50 1.3ft 3s 3s 11 16 mph 1021.6mb 68f 59f
4:50 1.3ft 3s 3s 11 16 mph 1021.2mb 67f 59f
3:50 1.6ft 3s 3s 13 18 mph 1021.3mb 66f 59f
2:50 1.3ft 3s 3s 16 18 mph 1021.4mb 65f 60f
1:50 1ft 2s 3s 13 16 mph 1021.5mb 65f 61f
12:50 0.7ft  -  4s 9 13 mph 1021.5mb 65f 61f
dom 09/25 11:50 1ft 2s 3s 9 11 mph 1021.4mb 65f 61f
10:50 1ft 2s 3s 11 13 mph 1021.1mb 67f 62f
9:50 1ft 3s 3s 11 16 mph 1020.8mb 68f 62f
8:50 1.3ft 3s 3s 11 13 mph 1020.5mb 69f 62f
7:50 1.6ft 3s 3s 11 16 mph 1019.7mb 69f 62f
6:50 1.6ft 3s 3s 13 18 mph 1019mb 69f 62f
5:50 1.3ft 3s 3s 13 16 mph 1018.5mb 69f 62f
4:50 1.6ft 3s 3s 13 16 mph 1017.9mb 69f 62f
3:50 2ft 3s 3s 13 18 mph 1018.2mb 69f 60f
2:50 2.5ft 3s 3s 16 18 mph 1018.4mb 67f 59f
1:50 2ft 4s 3s 16 22 mph 1018.8mb 66f 58f
12:50 2.5ft 4s 4s 16 25 mph 1019.3mb 66f 57f
11:50 2.5ft 3s 3s 20 25 mph 1019.3mb 67f 57f
10:50 2.5ft 4s 4s 18 25 mph 1019.3mb 68f 57f
9:50 2.5ft 4s 4s 16 22 mph 1019.2mb 69f 56f
8:50 2.5ft 4s 3s 20 25 mph 1019.1mb 69f 56f
7:50 2.5ft 3s 3s 16 20 mph 1019.1mb 69f 57f
6:50 2.5ft 4s 3s 20 25 mph 1018.7mb 69f 58f
5:50 2.5ft 3s 3s 20 27 mph 1018.1mb 69f 59f
4:50 2.5ft 3s 3s 25 31 mph 1017.6mb 69f 59f
3:50 2.5ft 3s 3s 25 29 mph 1017.5mb 69f 60f
2:50 2.5ft 3s 3s 22 27 mph 1017.4mb 68f 60f
1:50 2ft 3s 3s 22 27 mph 1017.6mb 67f 61f
12:50 2.5ft 3s 3s 22 27 mph 1017.5mb 66f 62f
sáb 09/24 11:50 1.6ft 3s 3s 20 27 mph 1017.9mb 66f 63f
10:50 1.3ft 3s 3s 20 25 mph 1018mb 67f 63f
9:50 1.3ft 5s 4s 13 18 mph 1018.2mb 68f 63f
8:50 1.3ft 5s 4s 9 11 mph 1018.3mb 69f 63f
7:50 1.6ft 5s 4s 7 9 mph 1018.2mb 70f 63f
6:50 2ft 3s 4s 7 9 mph 1017.8mb 70f 62f
5:50 2ft 3s 4s 11 16 mph 1017.5mb 70f 63f
4:50 2ft 3s 3s 16 20 mph 1017.3mb 70f 63f
3:50 2.5ft 4s 3s 18 22 mph 1017.2mb 70f 62f
2:50 2.5ft 4s 4s 18 25 mph 1017.3mb 70f 62f
1:50 2.5ft 4s 3s 18 22 mph 1017.7mb 69f 62f
12:50 2ft 3s 3s 13 18 mph 1018.2mb 68f 62f
11:50 2.5ft 3s 3s 16 20 mph 1018mb 67f 62f
10:50 2ft 3s 3s 18 22 mph 1017.9mb 68f 62f
9:50 2ft 3s 3s 16 20 mph 1017.8mb 69f 61f
8:50 2.5ft 3s 3s 18 22 mph 1017.7mb 70f 61f
7:50 2.5ft 3s 3s 18 22 mph 1017.6mb 70f 62f
6:50 2.5ft 3s 4s 20 25 mph 1017.2mb 70f 62f
5:50 2.5ft 3s 4s 18 22 mph 1016.8mb 71f 62f
4:50 2.5ft 4s 4s 18 22 mph 1016.4mb 71f 62f
3:50 2.5ft 4s 4s 20 25 mph 1016.9mb 71f 61f
2:50 3ft 4s 4s 20 25 mph 1016.9mb 70f 61f